Location: Villingen
(48.0639°N, 8.4609°E)
Time: 16:48:48
(UTC+01:00)

ISS - Pass Details

Date: 12 November 2017
Orbit: 402 x 407 km, 51.6° (Epoch: 19 November)

Event Time Altitude Azimuth Distance (km) Brightness Sun altitude
Exits shadow 05:52:43 38° 307° (NW) 631 -3.3 -16.0°
Maximum altitude 05:53:46 69° 18° (NNE) 436 -3.7 -15.8°
Drops below altitude 10° 05:57:01 10° 103° (ESE) 1,454 0.4 -15.3°
Sets 05:59:06 0° 106° (ESE) 2,311 1.9 -14.9°
